User: anonymous   Login
Location: Unspecified
(0.0000°N, 0.0000°E)
Time: 15:28:56
(UTC+00:00)
Language:

SWAYAM - Orbit

View from above orbital plane
View from above orbital plane
View from above satellite
View from above satellite

Ground track
Ground track

The orbit data is extracted from the following two-line orbital elements,

1 41607U 16040J   18109.15403683  .00001678  00000-0  76260-4 0  9995
2 41607  97.4186 172.9524 0015598  86.7425 273.5596 15.22041521101120
Epoch (UTC): 19 April 2018 03:41:48
Eccentricity: 0.0015598
inclination: 97.4186°
perigee height: 489 km
apogee height: 510 km
right ascension of ascending node: 172.9524°
argument of perigee: 86.7425°
revolutions per day: 15.22041521
mean anomaly at epoch: 273.5596°
orbit number at epoch: 10112

The dashed part of the orbit path shows where the satellite is in the earth's shadow,  

DLR